Simultaneous Nadir Overpasses (SNOs) Predictions

Prediction of SNOs between METOP-A and NOAA-19 Satellite Orbit:

Table of predicted SNOs for the next 14.0 days since TLE Epoch: 12/1/2017
Index Date (METOP-A) Time (METOP-A) Lat,Lon (METOP-A) SZA (METOP-A ) Date (NOAA-19) Time (NOAA-19) Lat,Lon (NOAA-19) SZA (NOAA-19 ) Distance(km) Time Diff (sec)
1 12/09/2017 00:03:22 77.94,-174.15 100.81 12/09/2017 00:02:08 77.94,-174.27 100.80 2.98 74
2 12/09/2017 00:54:04 -77.93, -6.86 79.20 12/09/2017 00:53:03 -77.91, -6.88 79.23 1.99 61
3 12/09/2017 01:44:44 77.92, 160.41 100.79 12/09/2017 01:44:09 77.92, 160.30 100.79 2.47 35
4 12/09/2017 02:35:26 -77.91, -32.30 79.22 12/09/2017 02:35:04 -77.90, -32.30 79.23 1.15 22
5 12/09/2017 03:26:06 77.90, 134.96 100.77 12/09/2017 03:26:10 77.91, 134.88 100.78 2.28 4
6 12/09/2017 04:16:48 -77.89, -57.75 79.24 12/09/2017 04:17:05 -77.89, -57.73 79.24 0.66 17
7 12/09/2017 05:07:28 77.87, 109.51 100.76 12/09/2017 05:08:11 77.89, 109.46 100.78 2.51 43
8 12/09/2017 05:58:10 -77.87, -83.19 79.25 12/09/2017 05:59:06 -77.87, -83.15 79.24 1.12 56
9 12/09/2017 06:48:58 77.52, 82.48 100.36 12/09/2017 06:50:04 77.56, 85.70 100.51 77.48 66




NCC Satellite Simultaneous Nadir Overpasses (SNOs) Prediction Service
